Weather History for Santa Barbara, CA

Change the Weather History Date:

Tuesday, June 11, 2013

  Actual Average Record
Temperature  
Mean Temperature 66 °F 62 °F  
Max Temperature 74 °F 70 °F 88 °F (1946)
Min Temperature 58 °F 53 °F 46 °F (1953)
Degree Days  
Heating Degree Days 0 4  
Month to date heating degree days 25 44  
Since 1 June heating degree days 25 44  
Since 1 July heating degree days 1967 2328  
Cooling Degree Days 1 0  
Month to date cooling degree days 1 0  
Year to date cooling degree days 58 14  
Since 1 June cooling degree days 1 0  
Growing Degree Days 15 (Base 50)    
Moisture  
Dew Point 57 °F    
Average Humidity 75    
Maximum Humidity 93    
Minimum Humidity 57    
Precipitation  
Precipitation 0.00 in 0.00 in 0.25 in (1963)
Month to date precipitation 0.03 0.04  
Year to date precipitation 3.35 12.02  
Since 1 July precipitation 9.42 17.73  
Sea Level Pressure  
Sea Level Pressure 29.91 in    
Wind  
Wind Speed 5 mph (SSW)    
Max Wind Speed 16 mph    
Max Gust Speed 18 mph    
Visibility 9 miles    
Events      
T = Trace of Precipitation, MM = Missing Value Source: NWS Daily Summary

Daily Weather History Graph

Daily Weather History Graph

Search for Another Location

Airport:

Trip Planner

Search our weather history database for the weather conditions in past years. The results will help you decide how hot, cold, wet, or windy it might be!

Date:

Astronomy

Jun. 11, 2013 Rise Set
Actual Time 5:46 AM PDT 8:11 PM PDT
Civil Twilight 5:17 AM PDT 8:41 PM PDT
Nautical Twilight 4:41 AM PDT 9:17 PM PDT
Astronomical Twilight 4:01 AM PDT 9:57 PM PDT
Moon 8:29 AM PDT (6/11) 10:24 PM PDT (6/11)
Length of Visible Light 15h 24m
Length of Day
14h 25m
Waxing Crescent, 9% of the Moon is Illuminated
Jun 11
Waxing Crescent
Jun 16
First Quarter
Jun 23
Full
Jun 29
Last Quarter
Jul 8
New

Hourly Weather History & Observations

Time (PDT) Temp. Dew Point Humidity Pressure Visibility Wind Dir Wind Speed Gust Speed Precip Events Conditions
12:23 AM 60.8 °F 55.4 °F 82% 29.92 in 10.0 mi Calm Calm - N/A   Scattered Clouds
12:53 AM 57.9 °F 54.0 °F 87% 29.91 in 10.0 mi South 3.5 mph - N/A   Clear
1:53 AM 57.9 °F 54.0 °F 87% 29.91 in 10.0 mi NNE 4.6 mph - N/A   Clear
2:53 AM 59.0 °F 55.0 °F 87% 29.90 in 10.0 mi East 3.5 mph - N/A   Clear
3:21 AM 57.2 °F 53.6 °F 88% 29.91 in 10.0 mi NNE 5.8 mph - N/A   Scattered Clouds
3:30 AM 59.0 °F 55.4 °F 88% 29.91 in 10.0 mi NE 5.8 mph - N/A   Mostly Cloudy
3:53 AM 57.9 °F 55.0 °F 90% 29.91 in 10.0 mi NE 6.9 mph - N/A   Mostly Cloudy
4:04 AM 57.2 °F 55.4 °F 94% 29.91 in 10.0 mi ENE 5.8 mph - N/A   Scattered Clouds
4:53 AM 59.0 °F 55.9 °F 90% 29.91 in 10.0 mi ENE 6.9 mph - N/A   Clear
5:20 AM 59.0 °F 55.4 °F 88% 29.91 in 10.0 mi ENE 4.6 mph - N/A   Partly Cloudy
5:35 AM 57.2 °F 55.4 °F 94% 29.91 in 10.0 mi Calm Calm - N/A   Mostly Cloudy
5:53 AM 59.0 °F 55.9 °F 90% 29.91 in 7.0 mi NNE 4.6 mph - N/A   Overcast
6:53 AM 61.0 °F 57.0 °F 87% 29.92 in 6.0 mi ENE 4.6 mph - N/A   Overcast
7:53 AM 63.0 °F 57.9 °F 84% 29.94 in 6.0 mi Calm Calm - N/A   Overcast
8:37 AM 64.4 °F 57.2 °F 77% 29.93 in 6.0 mi Variable 3.5 mph - N/A   Haze
8:53 AM 64.9 °F 57.9 °F 78% 29.93 in 6.0 mi Calm Calm - N/A   Haze
9:53 AM 66.9 °F 59.0 °F 76% 29.93 in 10.0 mi SSE 4.6 mph - N/A   Haze
10:53 AM 69.1 °F 57.9 °F 68% 29.94 in 10.0 mi WSW 5.8 mph - N/A   Clear
11:53 AM 70.0 °F 59.0 °F 68% 29.94 in 10.0 mi SW 6.9 mph - N/A   Clear
12:53 PM 72.0 °F 60.1 °F 66% 29.92 in 10.0 mi West 11.5 mph - N/A   Clear
1:53 PM 73.0 °F 57.9 °F 59% 29.91 in 10.0 mi West 10.4 mph - N/A   Clear
2:53 PM 72.0 °F 57.9 °F 61% 29.90 in 10.0 mi WSW 12.7 mph - N/A   Clear
3:53 PM 71.1 °F 57.9 °F 63% 29.90 in 10.0 mi West 10.4 mph - N/A   Clear
4:53 PM 69.1 °F 57.9 °F 68% 29.89 in 10.0 mi WSW 10.4 mph - N/A   Clear
5:53 PM 66.9 °F 57.9 °F 73% 29.88 in 10.0 mi WSW 6.9 mph - N/A   Clear
6:53 PM 64.9 °F 57.0 °F 75% 29.88 in 10.0 mi SW 3.5 mph - N/A   Clear
7:53 PM 63.0 °F 57.0 °F 81% 29.88 in 10.0 mi SW 3.5 mph - N/A   Clear
8:53 PM 61.0 °F 55.9 °F 83% 29.88 in 10.0 mi Calm Calm - N/A   Clear
9:53 PM 61.0 °F 57.0 °F 87% 29.91 in 10.0 mi Calm Calm - N/A   Clear
10:25 PM 59.0 °F 55.4 °F 88% 29.92 in 10.0 mi Calm Calm - N/A   Partly Cloudy
10:39 PM 60.8 °F 55.4 °F 82% 29.92 in 10.0 mi Calm Calm - N/A   Mostly Cloudy
10:53 PM 60.1 °F 57.0 °F 90% 29.93 in 10.0 mi Calm Calm - N/A   Overcast
11:53 PM 60.1 °F 57.0 °F 90% 29.93 in 10.0 mi SE 3.5 mph - N/A   Overcast